EW7186 Weather Reports


Display with metric or nautical units.
time (UTC)temp
F
wind
direction
speed
MPH
gust
MPH
rain 1hr
in
rain 24hr
in
rain mn
in
humidity
%
barometer
mb
20260510200052 78 80 4.0 6.0 0.00 0.00 0.00 66 1014.6
20260510194551 77 75 3.0 5.0 0.00 0.00 0.00 63 1014.7
20260510193051 77 70 4.0 5.0 0.00 0.00 0.00 64 1014.9
20260510191607 77 63 4.0 5.0 0.00 0.00 0.00 66 1015.0
20260510190057 77 69 4.0 5.0 0.00 0.00 0.00 63 1015.1
20260510184548 77 69 3.0 4.0 0.00 0.00 0.00 58 1015.1
20260510183048 77 53 3.0 5.0 0.00 0.00 0.00 61 1015.3
20260510181554 77 68 4.0 5.0 0.00 0.00 0.00 58 1015.4
20260510180052 77 69 4.0 5.0 0.00 0.00 0.00 60 1015.5
20260510174556 76 62 3.0 3.0 0.00 0.00 0.00 57 1015.6
20260510173053 76 60 3.0 5.0 0.00 0.00 0.00 63 1015.8
20260510171553 76 61 3.0 4.0 0.00 0.00 0.00 62 1016.1
20260510170054 76 72 2.0 2.0 0.00 0.00 0.00 61 1016.1
20260510164554 75 73 2.0 2.0 0.00 0.00 0.00 59 1016.3
20260510163055 75 0 0.0 0.0 0.00 0.00 0.00 62 1016.3
20260510161608 75 0 0.0 0.0 0.00 0.00 0.00 64 1016.3
20260510160127 73 69 1.0 2.0 0.00 0.00 0.00 65 1016.3
20260510154606 73 70 1.0 2.0 0.00 0.00 0.00 69 1016.3
20260510153101 73 0 0.0 1.0 0.00 0.00 0.00 74 1016.3
20260510151553 71 0 0.0 0.0 0.00 0.00 0.00 78 1016.3
20260510150054 70 58 1.0 3.0 0.00 0.00 0.00 78 1016.2
20260510144553 69 54 2.0 3.0 0.00 0.00 0.00 79 1016.2
20260510143100 68 60 2.0 4.0 0.00 0.00 0.00 82 1015.9
20260510141554 68 67 2.0 3.0 0.00 0.00 0.00 83 1016.0
20260510134553 69 0 0.0 0.0 0.00 0.00 0.00 80 1015.9
20260510133054 68 0 0.0 0.0 0.00 0.00 0.00 82 1015.9
20260510131552 68 0 0.0 0.0 0.00 0.00 0.00 85 1015.9
20260510130127 67 0 0.0 0.0 0.00 0.00 0.00 85 1015.8
20260510124550 67 0 0.0 1.0 0.00 0.00 0.00 84 1015.8
20260510123055 67 0 0.0 2.0 0.00 0.00 0.00 87 1015.7
20260510121552 68 218 0.0 0.0 0.00 0.00 0.00 86 1015.5
20260510120050 65 0 0.0 0.0 0.00 0.00 0.00 91 1015.4
20260510114549 63 0 0.0 0.0 0.00 0.00 0.00 91 1015.2
20260510113051 62 0 0.0 0.0 0.00 0.00 0.00 90 1015.0
20260510111608 62 0 0.0 0.0 0.00 0.00 0.00 90 1014.7
20260510110052 61 0 0.0 0.0 0.00 0.00 0.00 90 1014.7
20260510104550 62 0 0.0 0.0 0.00 0.00 0.00 90 1014.3
20260510103048 62 0 0.0 0.0 0.00 0.00 0.00 90 1014.0
20260510101552 62 0 0.0 0.0 0.00 0.00 0.00 91 1013.8
20260510100053 62 0 0.0 0.0 0.00 0.00 0.00 91 1013.6
20260510094553 62 0 0.0 1.0 0.00 0.00 0.00 91 1013.5
20260510093110 62 212 1.0 3.0 0.00 0.00 0.00 91 1013.5
20260510091552 62 0 0.0 0.0 0.00 0.00 0.00 91 1013.3
20260510084550 63 0 0.0 2.0 0.00 0.00 0.00 91 1013.1
20260510083102 63 0 0.0 0.0 0.00 0.00 0.00 91 1013.0
20260510081606 63 0 0.0 0.0 0.00 0.00 0.00 91 1012.8
20260510080055 63 0 0.0 0.0 0.00 0.00 0.00 91 1012.7
20260510074552 63 0 0.0 0.0 0.00 0.00 0.00 90 1012.3
20260510073050 63 226 0.0 1.0 0.00 0.00 0.00 89 1012.4
20260510071551 63 224 1.0 3.0 0.00 0.00 0.00 88 1012.4
20260510070053 63 0 0.0 0.0 0.00 0.00 0.00 88 1012.4
20260510064602 63 0 0.0 0.0 0.00 0.00 0.00 88 1012.4
20260510063054 63 0 0.0 0.0 0.00 0.00 0.00 88 1012.5
20260510061558 63 0 0.0 0.0 0.00 0.00 0.00 88 1012.5
20260510060055 63 0 0.0 0.0 0.00 0.00 0.00 89 1012.5
20260510054554 63 0 0.0 0.0 0.00 0.00 0.00 89 1012.6
20260510053053 63 0 0.0 0.0 0.00 0.00 0.00 89 1012.8
20260510051558 63 0 0.0 0.0 0.00 0.00 0.00 89 1012.8
20260510050054 64 0 0.0 0.0 0.00 0.00 0.00 89 1012.9
20260510044637 64 0 0.0 0.0 0.00 0.00 0.00 89 1012.9
20260510043058 64 0 0.0 1.0 0.00 0.00 0.00 89 1013.0
20260510041557 64 0 0.0 0.0 0.00 0.00 0.00 89 1013.0
20260510040059 64 0 0.0 0.0 0.00 0.00 0.00 90 1012.9
20260510034554 64 0 0.0 0.0 0.00 0.00 0.00 90 1012.8
20260510033056 64 0 0.0 0.0 0.00 0.00 0.00 91 1012.9
20260510031550 64 0 0.0 0.0 0.00 0.00 0.00 91 1012.9
20260510030051 65 0 0.0 0.0 0.00 0.00 0.00 91 1012.9
20260510024552 65 0 0.0 0.0 0.00 0.00 0.00 90 1013.0
20260510023050 65 0 0.0 0.0 0.00 0.00 0.00 90 1012.9
20260510021552 66 0 0.0 0.0 0.00 0.00 0.00 89 1013.0
20260510020051 66 0 0.0 0.0 0.00 0.00 0.00 89 1012.9
20260510014554 67 0 0.0 0.0 0.00 0.00 0.00 88 1012.6
20260510013053 67 0 0.0 0.0 0.00 0.00 0.00 87 1012.3
20260510011556 67 0 0.0 0.0 0.00 0.00 0.00 86 1012.2
20260510010123 68 0 0.0 0.0 0.00 0.00 0.00 86 1012.1
20260510004549 68 0 0.0 0.0 0.00 0.00 0.00 85 1011.9
20260510003054 69 0 0.0 1.0 0.00 0.00 0.00 84 1011.7
20260510001556 69 0 0.0 0.0 0.00 0.00 0.00 83 1011.3
20260510000058 70 0 0.0 0.0 0.00 0.00 0.00 81 1011.1
20260509234606 70 0 0.0 0.0 0.00 0.00 0.00 80 1011.0
20260509233051 71 0 0.0 0.0 0.00 0.00 0.00 79 1011.0
20260509231553 71 0 0.0 0.0 0.00 0.00 0.00 78 1010.9
20260509230054 72 0 0.0 0.0 0.00 0.00 0.00 78 1010.7
20260509224552 72 0 0.0 3.0 0.00 0.00 0.00 76 1010.7
20260509223047 72 267 0.0 2.0 0.00 0.00 0.00 75 1010.6
20260509221549 73 0 0.0 0.0 0.00 0.00 0.00 75 1010.7
20260509220057 73 0 1.0 3.0 0.00 0.00 0.00 75 1010.8
20260509214554 73 233 1.0 3.0 0.00 0.00 0.00 75 1010.6
20260509213053 73 252 0.0 4.0 0.00 0.00 0.00 74 1010.7
20260509211554 73 0 0.0 5.0 0.00 0.00 0.00 73 1010.6
20260509210051 73 0 0.0 3.0 0.00 0.00 0.00 74 1010.7
20260509204548 73 0 0.0 4.0 0.00 0.00 0.00 73 1010.8
20260509203114 73 233 2.0 6.0 0.00 0.00 0.00 73 1010.9
20260509201604 73 214 3.0 5.0 0.00 0.00 0.00 73 1011.0